Terug naar catalogus

COSMOS 2251 DEB

ActiefLEO
NORAD 35784·DEBRIS·🇷🇺 Russia

Gelanceerd Jun 16, 1993 vanaf Plesetsk Cosmodrome

Loading…

Volgende Passages (komende 24 uur)

TLE

VerouderendSource: Space-Track

Epoch: Sep 9, 2026, 11:22 UTC

1 35784U 93036ASE 26252.47389222  .00000431  00000-0  11618-3 0  9990
2 35784  74.0373 301.0983 0041260   0.5352 359.5845 14.50524007696317

Volg COSMOS 2251 DEB in realtime met AllMySat

Download on the App Store